This is the latest recevied weather packets stored in our database for station/object AI5BL. If no packets are shown the sender has not sent any weather packets the latest 10 day(s).
| Time | Temp. | Humidity | Pressure | Rain* | Wind** | Luminosity | Snow |
|---|---|---|---|---|---|---|---|
| 1777901960 | 15.56° C | 87% | 1020.1 hPa | 0 mm | - | 329 W/m² | - |
| 1777901658 | 15.56° C | 83% | 1019.8 hPa | 0 mm | - | 316 W/m² | - |
| 1777901355 | 15.56° C | 83% | 1020 hPa | 0 mm | - | 287 W/m² | - |
| 1777901053 | 14.44° C | 87% | 1019.9 hPa | 0 mm | - | 256 W/m² | - |
| 1777900750 | 14.44° C | 86% | 1020 hPa | 0 mm | - | 220 W/m² | - |
| 1777900447 | 13.89° C | 89% | 1020.1 hPa | 0 mm | - | 188 W/m² | - |
| 1777900144 | 13.33° C | 90% | 1020.2 hPa | 0 mm | - | 161 W/m² | - |
| 1777899840 | 13.33° C | 90% | 1020.1 hPa | 0 mm | - | 140 W/m² | - |
| 1777899537 | 12.78° C | 91% | 1020 hPa | 0 mm | - | 126 W/m² | - |
| 1777899235 | 12.78° C | 91% | 1020.1 hPa | 0 mm | - | 105 W/m² | - |
| 1777898932 | 12.78° C | 91% | 1020.1 hPa | 0 mm | - | 89 W/m² | - |
| 1777898629 | 11.67° C | 92% | 1020.2 hPa | 0 mm | - | 77 W/m² | - |
| 1777898327 | 11.11° C | 95% | 1020 hPa | 0 mm | - | 78 W/m² | - |
| 1777898024 | 11.11° C | 95% | 1020 hPa | 0 mm | - | 75 W/m² | - |
| 1777897720 | 10.56° C | 96% | 1020 hPa | 0 mm | - | 47 W/m² | - |
| 1777897417 | 10° C | 97% | 1020.1 hPa | 0 mm | - | 46 W/m² | - |
| 1777897112 | 10° C | 97% | 1019.9 hPa | 0 mm | - | 40 W/m² | - |
| 1777896809 | 10° C | 98% | 1019.9 hPa | 0 mm | - | 41 W/m² | - |
| 1777896506 | 9.44° C | 98% | 1019.8 hPa | 0 mm | - | 39 W/m² | - |
| 1777896203 | 9.44° C | 98% | 1019.8 hPa | 0 mm | - | 38 W/m² | - |
| 1777895901 | 8.89° C | 99% | 1019.8 hPa | 0 mm | - | 39 W/m² | - |
| 1777895599 | 8.33° C | 99% | 1019.9 hPa | 0 mm | - | 36 W/m² | - |
| 1777895296 | 8.33° C | 98% | 1019.8 hPa | 0 mm | - | 26 W/m² | - |
| 1777894994 | 7.78° C | 98% | 1019.8 hPa | 0 mm | - | 19 W/m² | - |
| 1777894691 | 7.78° C | 98% | 1019.8 hPa | 0 mm | - | 15 W/m² | - |
* Rain latest hour (hover to see other rain measurements)
** Current wind speed in m/s (hover to see current wind gust speed)